Hourly Data Report for May 11, 2003

SHERBROOKE A
QUEBEC

45°26'00.000" N
71°41'00.000" W
241.40 m
7028124
71610
YSC

Download Data

Hourly Data (May 2003)
Hourly Data Report for May 11, 2003
TIME
LST
Temp Definition
°C
Dew Point Definition
°C
Rel Hum Definition
%
Precip. Amount Definition
mm

Wind Dir Definition
10's deg

Wind Spd Definition
km/h
Visibility Definition
km
Stn Press Definition
kPa
Hmdx Definition


Wind Chill Definition


Weather Definition


00:00 4.7 1.2 78   5 7 15.0 98.29      
01:00 3.5 0.7 82   7 6 15.0 98.29      
02:00 1.4 -0.4 88   10 7 15.0 98.27      
03:00 0.6 -1.0 89   10 6 15.0 98.25      
04:00 -0.4 -1.5 92   10 6 15.0 98.26   -2  
05:00 0.6 -0.6 92   10 7 15.0 98.27      
06:00 3.3 1.0 85   10 7 15.0 98.27      
07:00 7.2 2.2 70   7 9 24.1 98.19     Clear
08:00 11.1 2.3 55   13 7 24.1 98.21     Clear
09:00 13.2 1.6 45   7 11 24.1 98.15     Mainly Clear
10:00 15.8 2.2 40   13 11 24.1 98.04     Mainly Clear
11:00 17.6 2.2 36   12 11 24.1 97.93     Mainly Clear
12:00 19.5 3.8 35   13 13 24.1 97.81     Mainly Clear
13:00 20.4 3.9 34   8 7 24.1 97.68     Mostly Cloudy
14:00 22.2 5.0 33   17 7 24.1 97.58     Mostly Cloudy
15:00 21.6 3.6 31   10 13 24.1 97.39     Mostly Cloudy
16:00 20.6 2.4 30   12 19 24.1 97.36     Cloudy
17:00 19.9 3.5 34   12 19 15.0 97.25      
18:00 18.4 3.7 38   13 28 15.0 97.12      
19:00 16.5 4.0 43   13 26 15.0 97.16     Rain
20:00 12.8 7.2 69   13 20 15.0 97.23     Rain
21:00 10.3 7.9 85   10 11 12.9 97.20     Moderate Rain
22:00 9.3 8.0 92   12 15 3.5 97.35     Moderate Rain
23:00 8.8 7.7 93   12 11 9.7 97.35     Rain

Notes on Data Quality.

Legend

  • E = Estimated
  • M = Missing
  • NA = Not Available*
  • [empty] = Indicates an unobserved value
Date modified: